Notices

What's New in latest release on October 27, 2021:

- Updated email addresses on the CDO Contacts page.

- Updated station operator of Churchill Falls (Climate ID: 8501130).

- Radar site name change from Jimmy Lake to Cold Lake on October 27, 2021.

Hourly Data Report for July 17, 2021

GORE BAY CLIMATE
ONTARIO
Current Station Operator: ECCC - MSC

45°53'00.000" N
82°34'00.000" W
188.60 m
6092920
71956
TZE

Download Data

Hourly Data (July 2021)
Hourly Data Report for July 17, 2021
TIME
LST
Temp Definition
°C
Dew Point Definition
°C
Rel Hum Definition
%
Precip. Amount Definition
mm

Wind Dir Definition
10's deg

Wind Spd Definition
km/h
Visibility Definition
km
Stn Press Definition
kPa
Hmdx Definition


Wind Chill Definition


Weather Definition


00:00 17.0 13.8 82 0.0 7 3   99.66     LegendNANA
01:00 16.0 13.7 86 0.0 9 3   99.66     LegendNANA
02:00 15.8 13.6 86 0.0 4 3   99.65     LegendNANA
03:00 15.3 12.9 85 0.0 36 4   99.64     LegendNANA
04:00 14.2 12.3 88 0.0   0   99.66     LegendNANA
05:00 14.9 13.2 89 0.0 36 5   99.69     LegendNANA
06:00 16.5 14.7 89 0.0 34 6   99.73     LegendNANA
07:00 19.7 15.0 74 0.0 35 5   99.76     LegendNANA
08:00 21.1 14.6 67 0.0 1 11   99.78 25   LegendNANA
09:00 21.6 13.9 61 0.0 2 13   99.81 25   LegendNANA
10:00 22.0 14.3 61 0.0 1 14   99.83 26   LegendNANA
11:00 22.8 13.5 56 0.0 2 13   99.84 26   LegendNANA
12:00 24.8 13.9 51 0.0 3 12   99.83 28   LegendNANA
13:00 25.5 14.4 50 0.0 2 12   99.82 29   LegendNANA
14:00 26.2 10.5 37 0.0 1 13   99.80 28   LegendNANA
15:00 27.5 10.5 35 0.0 1 7   99.78 29   LegendNANA
16:00 27.6 10.1 33 0.0 35 6   99.75 29   LegendNANA
17:00 27.4 13.2 41 0.0 27 8   99.74 30   LegendNANA
18:00 26.5 14.2 47 0.0 28 9   99.73 30   LegendNANA
19:00 25.4 14.6 51 0.0 30 7   99.76 29   LegendNANA
20:00 23.9 13.7 53 0.0 31 8   99.76 27   LegendNANA
21:00 22.3 14.1 60 0.0 28 8   99.80 26   LegendNANA
22:00 22.0 15.5 67 0.0 31 7   99.82 26   LegendNANA
23:00 21.5 15.1 67 0.0 35 5   99.84 26   LegendNANA

Notes on Data Quality.

Legend

  • E = Estimated
  • M = Missing
  • NA = Not Available*
  • [empty] = Indicates an unobserved value
Date modified: